Data start date =,5/16/1934
Data end date/time =,5/5/2024 12:00
Vertical Datum =,MSL1912
""
Date/Time,LockDam_07
,Elev
UTC,ft
,Ave
5/17/1934 12:00,630.04
5/18/1934 12:00,629.76
5/19/1934 12:00,629.72
5/20/1934 12:00,629.60
5/21/1934 12:00,629.62
5/22/1934 12:00,629.60
5/23/1934 12:00,629.44
5/24/1934 12:00,629.37
5/25/1934 12:00,629.27
5/26/1934 12:00,629.12
5/27/1934 12:00,629.07
5/28/1934 12:00,629.02
5/29/1934 12:00,628.92
5/30/1934 12:00,628.87
5/31/1934 12:00,628.77
6/1/1934 12:00,628.68
6/2/1934 12:00,628.58
6/3/1934 12:00,628.52
6/4/1934 12:00,628.42
6/5/1934 12:00,628.39
6/6/1934 12:00,628.32
6/7/1934 12:00,628.12
6/8/1934 12:00,627.98
6/9/1934 12:00,628.12
6/10/1934 12:00,628.52
6/11/1934 12:00,628.62
6/12/1934 12:00,628.52
6/13/1934 12:00,628.44
6/14/1934 12:00,628.30
6/15/1934 12:00,628.18
6/16/1934 12:00,628.10
6/17/1934 12:00,627.92
6/18/1934 12:00,627.97
6/19/1934 12:00,628.02
6/20/1934 12:00,627.97
6/21/1934 12:00,627.94
6/22/1934 12:00,627.92
6/23/1934 12:00,627.90
6/24/1934 12:00,627.97
6/25/1934 12:00,628.16
6/26/1934 12:00,628.32
6/27/1934 12:00,628.40
6/28/1934 12:00,628.92
6/29/1934 12:00,629.22
6/30/1934 12:00,629.72
7/1/1934 12:00,629.72
7/2/1934 12:00,629.22
7/3/1934 12:00,628.77
7/4/1934 12:00,628.42
7/5/1934 12:00,628.76
7/6/1934 12:00,628.62
7/7/1934 12:00,629.02
7/8/1934 12:00,628.65
7/9/1934 12:00,628.10
7/10/1934 12:00,627.92
7/11/1934 12:00,628.04
7/12/1934 12:00,627.97
7/13/1934 12:00,627.87
7/14/1934 12:00,627.82
7/15/1934 12:00,627.77
7/16/1934 12:00,627.75
7/17/1934 12:00,627.42
7/18/1934 12:00,627.52
7/19/1934 12:00,627.62
7/20/1934 12:00,627.68
7/21/1934 12:00,627.51
7/22/1934 12:00,627.41
7/23/1934 12:00,627.38
7/24/1934 12:00,627.28
7/25/1934 12:00,627.18
7/26/1934 12:00,627.27
7/27/1934 12:00,627.41
7/28/1934 12:00,627.20
7/29/1934 12:00,626.99
7/30/1934 12:00,626.85
7/31/1934 12:00,626.79
8/1/1934 12:00,626.71
8/2/1934 12:00,626.62
8/3/1934 12:00,626.55
8/4/1934 12:00,626.54
8/5/1934 12:00,626.51
8/6/1934 12:00,626.48
8/7/1934 12:00,626.42
8/8/1934 12:00,626.47
8/9/1934 12:00,626.53
8/10/1934 12:00,626.70
8/11/1934 12:00,626.72
8/12/1934 12:00,626.61
8/13/1934 12:00,626.56
8/14/1934 12:00,626.47
8/15/1934 12:00,626.41
8/16/1934 12:00,626.36
8/17/1934 12:00,626.37
8/18/1934 12:00,626.31
8/19/1934 12:00,626.47
8/20/1934 12:00,626.51
8/21/1934 12:00,627.01
8/22/1934 12:00,626.72
8/23/1934 12:00,626.49
8/24/1934 12:00,626.39
8/25/1934 12:00,626.36
8/26/1934 12:00,626.34
8/27/1934 12:00,626.25
8/28/1934 12:00,626.14
8/29/1934 12:00,626.08
8/30/1934 12:00,626.04
8/31/1934 12:00,626.05
9/1/1934 12:00,626.12
9/2/1934 12:00,626.27
9/3/1934 12:00,626.59
9/4/1934 12:00,626.92
9/5/1934 12:00,626.91
9/6/1934 12:00,626.94
9/7/1934 12:00,626.96
9/8/1934 12:00,626.94
9/9/1934 12:00,626.90
9/10/1934 12:00,626.86
9/11/1934 12:00,626.93
9/12/1934 12:00,626.94
9/13/1934 12:00,626.92
9/14/1934 12:00,626.91
9/15/1934 12:00,626.94
9/16/1934 12:00,627.05
9/17/1934 12:00,627.09
9/18/1934 12:00,627.05
9/19/1934 12:00,627.08
9/20/1934 12:00,627.16
9/21/1934 12:00,627.13
9/22/1934 12:00,627.14
9/23/1934 12:00,627.12
9/24/1934 12:00,627.17
9/25/1934 12:00,627.35
9/26/1934 12:00,628.66
9/27/1934 12:00,630.21
9/28/1934 12:00,631.22
9/29/1934 12:00,632.17
9/30/1934 12:00,633.52
10/1/1934 12:00,633.57
10/2/1934 12:00,633.40
10/3/1934 12:00,633.28
10/4/1934 12:00,632.84
10/5/1934 12:00,632.56
10/6/1934 12:00,632.24
10/7/1934 12:00,632.03
10/8/1934 12:00,631.79
10/9/1934 12:00,631.48
10/10/1934 12:00,631.18
10/11/1934 12:00,631.02
10/12/1934 12:00,630.76
10/13/1934 12:00,630.67
10/14/1934 12:00,630.47
10/15/1934 12:00,630.34
10/16/1934 12:00,630.12
10/17/1934 12:00,629.80
10/18/1934 12:00,629.77
10/19/1934 12:00,629.62
10/20/1934 12:00,629.62
10/21/1934 12:00,629.77
10/22/1934 12:00,630.20
10/23/1934 12:00,630.58
10/24/1934 12:00,630.78
10/25/1934 12:00,631.28
10/26/1934 12:00,631.58
10/27/1934 12:00,631.66
10/28/1934 12:00,631.89
10/29/1934 12:00,632.01
10/30/1934 12:00,631.85
10/31/1934 12:00,631.64
11/1/1934 12:00,631.41
11/2/1934 12:00,631.28
11/3/1934 12:00,631.07
11/4/1934 12:00,630.99
11/5/1934 12:00,630.91
11/6/1934 12:00,630.88
11/7/1934 12:00,630.92
11/8/1934 12:00,630.92
11/9/1934 12:00,631.04
11/10/1934 12:00,630.97
11/11/1934 12:00,630.73
11/12/1934 12:00,630.50
11/13/1934 12:00,630.41
11/14/1934 12:00,630.13
11/15/1934 12:00,630.01
11/16/1934 12:00,629.91
11/17/1934 12:00,629.82
11/18/1934 12:00,629.80
11/19/1934 12:00,629.77
11/20/1934 12:00,629.89
11/21/1934 12:00,630.11
11/22/1934 12:00,630.50
11/23/1934 12:00,630.95
11/24/1934 12:00,631.61
11/25/1934 12:00,632.16
11/26/1934 12:00,633.11
11/27/1934 12:00,633.01
11/28/1934 12:00,632.86
11/29/1934 12:00,632.74
11/30/1934 12:00,632.63
12/1/1934 12:00,632.54
12/2/1934 12:00,632.69
12/3/1934 12:00,632.79
12/4/1934 12:00,632.51
12/5/1934 12:00,632.19
12/6/1934 12:00,631.86
12/7/1934 12:00,631.66
12/8/1934 12:00,631.42
12/9/1934 12:00,631.28
12/10/1934 12:00,631.54
12/11/1934 12:00,632.96
12/12/1934 12:00,632.92
12/13/1934 12:00,632.91
12/14/1934 12:00,633.02
12/15/1934 12:00,633.22
12/16/1934 12:00,633.00
12/17/1934 12:00,633.22
12/18/1934 12:00,633.47
12/19/1934 12:00,633.58
12/20/1934 12:00,633.62
12/21/1934 12:00,633.60
12/22/1934 12:00,633.40
12/23/1934 12:00,633.30
12/24/1934 12:00,633.10
12/25/1934 12:00,632.80
12/26/1934 12:00,631.95
12/27/1934 12:00,631.68
12/28/1934 12:00,631.17
12/29/1934 12:00,630.63
12/30/1934 12:00,630.54
12/31/1934 12:00,630.72
1/1/1935 12:00,630.90
1/2/1935 12:00,631.17
1/3/1935 12:00,631.24
1/4/1935 12:00,631.28
1/5/1935 12:00,631.24
1/6/1935 12:00,631.14
1/7/1935 12:00,631.15
1/8/1935 12:00,631.24
1/9/1935 12:00,631.33
1/10/1935 12:00,631.36
1/11/1935 12:00,631.43
1/12/1935 12:00,631.42
1/13/1935 12:00,631.40
1/14/1935 12:00,631.20
1/15/1935 12:00,631.02
1/16/1935 12:00,630.94
1/17/1935 12:00,631.04
1/18/1935 12:00,630.96
1/19/1935 12:00,630.84
1/20/1935 12:00,630.90
1/21/1935 12:00,630.94
1/22/1935 12:00,630.80
1/23/1935 12:00,630.68
1/24/1935 12:00,630.66
1/25/1935 12:00,630.64
1/26/1935 12:00,630.62
1/27/1935 12:00,630.68
1/28/1935 12:00,630.78
1/29/1935 12:00,630.78
1/30/1935 12:00,630.82
1/31/1935 12:00,630.88
2/1/1935 12:00,630.90
2/2/1935 12:00,630.96
2/3/1935 12:00,631.06
2/4/1935 12:00,631.12
2/5/1935 12:00,631.15
2/6/1935 12:00,631.18
2/7/1935 12:00,631.17
2/8/1935 12:00,631.16
2/9/1935 12:00,631.17
2/10/1935 12:00,631.19
2/11/1935 12:00,631.22
2/12/1935 12:00,631.26
2/13/1935 12:00,631.29
2/14/1935 12:00,631.42
2/15/1935 12:00,631.43
2/16/1935 12:00,631.51
2/17/1935 12:00,631.66
2/18/1935 12:00,631.80
2/19/1935 12:00,631.82
2/20/1935 12:00,631.82
2/21/1935 12:00,631.83
2/22/1935 12:00,631.85
2/23/1935 12:00,631.89
2/24/1935 12:00,631.95
2/25/1935 12:00,632.01
2/26/1935 12:00,631.24
2/27/1935 12:00,631.02
2/28/1935 12:00,631.24
3/1/1935 12:00,631.54
3/2/1935 12:00,631.72
3/3/1935 12:00,631.96
3/4/1935 12:00,632.19
3/5/1935 12:00,632.38
3/6/1935 12:00,632.49
3/7/1935 12:00,632.50
3/8/1935 12:00,632.51
3/9/1935 12:00,632.59
3/10/1935 12:00,632.72
3/11/1935 12:00,632.98
3/12/1935 12:00,633.10
3/13/1935 12:00,633.21
3/14/1935 12:00,633.17
3/15/1935 12:00,632.91
3/16/1935 12:00,632.31
3/17/1935 12:00,632.37
3/18/1935 12:00,632.65
3/19/1935 12:00,633.26
3/20/1935 12:00,633.87
3/21/1935 12:00,634.27
3/22/1935 12:00,634.52
3/23/1935 12:00,635.59
3/24/1935 12:00,636.86
3/25/1935 12:00,637.43
3/26/1935 12:00,637.51
3/27/1935 12:00,637.81
3/28/1935 12:00,638.44
3/29/1935 12:00,638.84
3/30/1935 12:00,639.03
3/31/1935 12:00,639.08
4/1/1935 12:00,638.84
4/2/1935 12:00,638.62
4/3/1935 12:00,638.29
4/4/1935 12:00,637.90
4/5/1935 12:00,637.52
4/6/1935 12:00,637.20
4/7/1935 12:00,636.76
4/8/1935 12:00,636.30
4/9/1935 12:00,635.92
4/10/1935 12:00,635.52
4/11/1935 12:00,635.20
4/12/1935 12:00,634.90
4/13/1935 12:00,634.69
4/14/1935 12:00,634.58
4/15/1935 12:00,634.72
4/16/1935 12:00,634.62
4/17/1935 12:00,634.42
4/18/1935 12:00,634.02
4/19/1935 12:00,633.69
4/20/1935 12:00,633.42
4/21/1935 12:00,633.22
4/22/1935 12:00,633.08
4/23/1935 12:00,632.96
4/24/1935 12:00,632.85
4/25/1935 12:00,632.76
4/26/1935 12:00,632.77
4/27/1935 12:00,632.77
4/28/1935 12:00,632.82
4/29/1935 12:00,632.88
4/30/1935 12:00,632.92
5/1/1935 12:00,632.84
5/2/1935 12:00,632.86
5/3/1935 12:00,632.77
5/4/1935 12:00,632.75
5/5/1935 12:00,632.72
5/6/1935 12:00,632.81
5/7/1935 12:00,632.86
5/8/1935 12:00,632.84
5/9/1935 12:00,632.78
5/10/1935 12:00,632.71
5/11/1935 12:00,632.76
5/12/1935 12:00,633.20
5/13/1935 12:00,633.72
5/14/1935 12:00,634.12
5/15/1935 12:00,634.32
5/16/1935 12:00,634.38
5/17/1935 12:00,634.41
5/18/1935 12:00,634.39
5/19/1935 12:00,634.32
5/20/1935 12:00,634.27
5/21/1935 12:00,634.18
5/22/1935 12:00,634.02
5/23/1935 12:00,633.89
5/24/1935 12:00,633.71
5/25/1935 12:00,633.58
5/26/1935 12:00,633.48
5/27/1935 12:00,633.50
5/28/1935 12:00,633.44
5/29/1935 12:00,633.15
5/30/1935 12:00,632.36
5/31/1935 12:00,631.52
6/1/1935 12:00,631.12
6/2/1935 12:00,631.16
6/3/1935 12:00,631.04
6/4/1935 12:00,631.00
6/5/1935 12:00,630.95
6/6/1935 12:00,630.93
6/7/1935 12:00,630.79
6/8/1935 12:00,630.65
6/9/1935 12:00,630.44
6/10/1935 12:00,630.36
6/11/1935 12:00,630.20
6/12/1935 12:00,629.99
6/13/1935 12:00,629.86
6/14/1935 12:00,630.00
6/15/1935 12:00,629.88
6/16/1935 12:00,630.12
6/17/1935 12:00,630.68
6/18/1935 12:00,631.71
6/19/1935 12:00,632.44
6/20/1935 12:00,632.66
6/21/1935 12:00,632.88
6/22/1935 12:00,633.18
6/23/1935 12:00,634.41
6/24/1935 12:00,635.02
6/25/1935 12:00,634.88
6/26/1935 12:00,634.66
6/27/1935 12:00,634.51
6/28/1935 12:00,634.30
6/29/1935 12:00,634.15
6/30/1935 12:00,633.70
7/1/1935 12:00,633.07
7/2/1935 12:00,632.76
7/3/1935 12:00,633.14
7/4/1935 12:00,633.93
7/5/1935 12:00,634.52
7/6/1935 12:00,634.67
7/7/1935 12:00,634.87
7/8/1935 12:00,635.12
7/9/1935 12:00,635.75
7/10/1935 12:00,635.88
7/11/1935 12:00,635.92
7/12/1935 12:00,635.93
7/13/1935 12:00,635.92
7/14/1935 12:00,635.72
7/15/1935 12:00,635.48
7/16/1935 12:00,635.06
7/17/1935 12:00,634.60
7/18/1935 12:00,634.13
7/19/1935 12:00,633.46
7/20/1935 12:00,632.64
7/21/1935 12:00,631.86
7/22/1935 12:00,631.42
7/23/1935 12:00,631.07
7/24/1935 12:00,630.79
7/25/1935 12:00,631.67
7/26/1935 12:00,631.54
7/27/1935 12:00,631.00
7/28/1935 12:00,631.08
7/29/1935 12:00,632.17
7/30/1935 12:00,632.30
7/31/1935 12:00,632.05
8/1/1935 12:00,631.85
8/2/1935 12:00,631.77
8/3/1935 12:00,632.02
8/4/1935 12:00,632.29
8/5/1935 12:00,632.35
8/6/1935 12:00,632.12
8/7/1935 12:00,632.75
8/8/1935 12:00,633.78
8/9/1935 12:00,634.17
8/10/1935 12:00,634.47
8/11/1935 12:00,634.17
8/12/1935 12:00,633.62
8/13/1935 12:00,632.39
8/14/1935 12:00,631.24
8/15/1935 12:00,630.90
8/16/1935 12:00,630.92
8/17/1935 12:00,631.20
8/18/1935 12:00,630.83
8/19/1935 12:00,630.77
8/20/1935 12:00,630.52
8/21/1935 12:00,630.79
8/22/1935 12:00,631.68
8/23/1935 12:00,631.76
8/24/1935 12:00,631.83
8/25/1935 12:00,631.74
8/26/1935 12:00,631.72
8/27/1935 12:00,631.58
8/28/1935 12:00,631.43
8/29/1935 12:00,631.42
8/30/1935 12:00,631.24
8/31/1935 12:00,631.24
9/1/1935 12:00,631.22
9/2/1935 12:00,631.17
9/3/1935 12:00,631.05
9/4/1935 12:00,630.95
9/5/1935 12:00,630.77
9/6/1935 12:00,630.40
9/7/1935 12:00,630.32
9/8/1935 12:00,630.37
9/9/1935 12:00,630.57
9/10/1935 12:00,630.54
9/11/1935 12:00,630.41
9/12/1935 12:00,630.24
9/13/1935 12:00,630.16
9/14/1935 12:00,630.08
9/15/1935 12:00,630.04
9/16/1935 12:00,629.94
9/17/1935 12:00,629.89
9/18/1935 12:00,629.91
9/19/1935 12:00,630.12
9/20/1935 12:00,630.67
9/21/1935 12:00,631.49
9/22/1935 12:00,631.70
9/23/1935 12:00,631.84
9/24/1935 12:00,631.46
9/25/1935 12:00,630.99
9/26/1935 12:00,630.82
9/27/1935 12:00,630.92
9/28/1935 12:00,630.50
9/29/1935 12:00,630.19
9/30/1935 12:00,629.85
10/1/1935 12:00,629.64
10/2/1935 12:00,629.64
10/3/1935 12:00,629.61
10/4/1935 12:00,629.56
10/5/1935 12:00,629.54
10/6/1935 12:00,629.51
10/7/1935 12:00,629.48
10/8/1935 12:00,629.51
10/9/1935 12:00,629.42
10/10/1935 12:00,629.16
10/11/1935 12:00,629.09
10/12/1935 12:00,629.09
10/13/1935 12:00,628.91
10/14/1935 12:00,628.89
10/15/1935 12:00,628.98
10/16/1935 12:00,628.88
10/17/1935 12:00,629.12
10/18/1935 12:00,629.11
10/19/1935 12:00,629.10
10/20/1935 12:00,629.01
10/21/1935 12:00,629.12
10/22/1935 12:00,629.33
10/23/1935 12:00,630.04
10/24/1935 12:00,630.20
10/25/1935 12:00,630.05
10/26/1935 12:00,629.71
10/27/1935 12:00,629.42
10/28/1935 12:00,629.40
10/29/1935 12:00,629.61
10/30/1935 12:00,629.60
10/31/1935 12:00,629.73
11/1/1935 12:00,630.32
11/2/1935 12:00,631.37
11/3/1935 12:00,631.96
11/4/1935 12:00,632.42
11/5/1935 12:00,632.87
11/6/1935 12:00,632.99
11/7/1935 12:00,632.70
11/8/1935 12:00,632.34
11/9/1935 12:00,631.94
11/10/1935 12:00,631.52
11/11/1935 12:00,631.18
11/12/1935 12:00,631.04
11/13/1935 12:00,631.12
11/14/1935 12:00,630.76
11/15/1935 12:00,630.66
11/16/1935 12:00,630.84
11/17/1935 12:00,630.68
11/18/1935 12:00,630.43
11/19/1935 12:00,630.49
11/20/1935 12:00,630.44
11/21/1935 12:00,630.30
11/22/1935 12:00,630.33
11/23/1935 12:00,630.07
11/24/1935 12:00,629.59
11/25/1935 12:00,629.34
11/26/1935 12:00,629.44
11/27/1935 12:00,629.54
11/28/1935 12:00,629.88
11/29/1935 12:00,630.35
11/30/1935 12:00,630.31
12/1/1935 12:00,629.64
12/2/1935 12:00,629.40
12/3/1935 12:00,628.92
12/4/1935 12:00,629.11
12/5/1935 12:00,629.44
12/6/1935 12:00,629.59
12/7/1935 12:00,629.44
12/8/1935 12:00,629.92
12/9/1935 12:00,630.27
12/10/1935 12:00,630.39
12/11/1935 12:00,629.97
12/12/1935 12:00,630.41
12/13/1935 12:00,631.00
12/14/1935 12:00,631.18
12/15/1935 12:00,631.12
12/16/1935 12:00,631.07
12/17/1935 12:00,630.92
12/18/1935 12:00,630.85
12/19/1935 12:00,630.86
12/20/1935 12:00,631.64
12/21/1935 12:00,631.56
12/22/1935 12:00,631.47
12/23/1935 12:00,631.70
12/24/1935 12:00,631.90
12/25/1935 12:00,631.99
12/26/1935 12:00,631.97
12/27/1935 12:00,632.00
12/28/1935 12:00,632.00
12/29/1935 12:00,632.01
12/30/1935 12:00,632.02
12/31/1935 12:00,632.01
1/1/1936 12:00,632.01
1/2/1936 12:00,632.02
1/3/1936 12:00,632.03
1/4/1936 12:00,632.03
1/5/1936 12:00,632.02
1/6/1936 12:00,632.02
1/7/1936 12:00,632.02
1/8/1936 12:00,631.98
1/9/1936 12:00,631.88
1/10/1936 12:00,631.88
1/11/1936 12:00,631.88
1/12/1936 12:00,631.88
1/13/1936 12:00,631.87
1/14/1936 12:00,631.88
1/15/1936 12:00,631.88
1/16/1936 12:00,631.88
1/17/1936 12:00,631.41
1/18/1936 12:00,631.38
1/19/1936 12:00,631.38
1/20/1936 12:00,631.37
1/21/1936 12:00,631.10
1/22/1936 12:00,630.89
1/23/1936 12:00,630.64
1/24/1936 12:00,630.41
1/25/1936 12:00,630.32
1/26/1936 12:00,630.31
1/27/1936 12:00,630.41
1/28/1936 12:00,630.40
1/29/1936 12:00,630.41
1/30/1936 12:00,630.30
1/31/1936 12:00,630.15
2/1/1936 12:00,630.13
2/2/1936 12:00,630.13
2/3/1936 12:00,630.15
2/4/1936 12:00,630.15
2/5/1936 12:00,630.15
2/6/1936 12:00,630.17
2/7/1936 12:00,630.10
2/8/1936 12:00,630.07
2/9/1936 12:00,630.07
2/10/1936 12:00,630.07
2/11/1936 12:00,630.07
2/12/1936 12:00,630.12
2/13/1936 12:00,630.12
2/14/1936 12:00,629.95
2/15/1936 12:00,629.90
2/16/1936 12:00,629.89
2/17/1936 12:00,629.90
2/18/1936 12:00,629.95
2/19/1936 12:00,629.97
2/20/1936 12:00,629.97
2/21/1936 12:00,630.01
2/22/1936 12:00,630.03
2/23/1936 12:00,630.12
2/24/1936 12:00,630.14
2/25/1936 12:00,630.38
2/26/1936 12:00,630.64
2/27/1936 12:00,630.69
2/28/1936 12:00,630.73
2/29/1936 12:00,630.76
3/1/1936 12:00,630.80
3/2/1936 12:00,630.80
3/3/1936 12:00,630.99
3/4/1936 12:00,631.01
3/5/1936 12:00,631.02
3/6/1936 12:00,631.02
3/7/1936 12:00,631.07
3/8/1936 12:00,631.07
3/9/1936 12:00,631.09
3/10/1936 12:00,631.25
3/11/1936 12:00,632.10
3/12/1936 12:00,634.27
3/13/1936 12:00,634.77
3/14/1936 12:00,635.39
3/15/1936 12:00,635.62
3/16/1936 12:00,635.60
3/17/1936 12:00,635.48
3/18/1936 12:00,635.34
3/19/1936 12:00,635.30
3/20/1936 12:00,635.18
3/21/1936 12:00,635.28
3/22/1936 12:00,636.18
3/23/1936 12:00,637.66
3/24/1936 12:00,638.78
3/25/1936 12:00,639.43
3/26/1936 12:00,640.31
3/27/1936 12:00,640.50
3/28/1936 12:00,640.46
3/29/1936 12:00,640.32
3/30/1936 12:00,640.27
3/31/1936 12:00,640.12
4/1/1936 12:00,640.05
4/2/1936 12:00,639.98
4/3/1936 12:00,639.71
4/4/1936 12:00,639.44
4/5/1936 12:00,639.15
4/6/1936 12:00,638.80
4/7/1936 12:00,638.55
4/8/1936 12:00,638.19
4/9/1936 12:00,637.90
4/10/1936 12:00,637.68
4/11/1936 12:00,637.44
4/12/1936 12:00,637.30
4/13/1936 12:00,637.31
4/14/1936 12:00,637.43
4/15/1936 12:00,637.83
4/16/1936 12:00,638.47
4/17/1936 12:00,639.24
4/18/1936 12:00,639.80
4/19/1936 12:00,640.15
4/20/1936 12:00,640.34
4/21/1936 12:00,640.35
4/22/1936 12:00,640.13
4/23/1936 12:00,639.81
4/24/1936 12:00,639.39
4/25/1936 12:00,639.00
4/26/1936 12:00,638.61
4/27/1936 12:00,638.24
4/28/1936 12:00,637.89
4/29/1936 12:00,637.59
4/30/1936 12:00,637.18
5/1/1936 12:00,637.22
5/2/1936 12:00,637.42
5/3/1936 12:00,637.35
5/4/1936 12:00,637.42
5/5/1936 12:00,637.57
5/6/1936 12:00,637.57
5/7/1936 12:00,637.50
5/8/1936 12:00,637.45
5/9/1936 12:00,637.48
5/10/1936 12:00,637.84
5/11/1936 12:00,638.33
5/12/1936 12:00,638.82
5/13/1936 12:00,639.03
5/14/1936 12:00,638.85
5/15/1936 12:00,638.59
5/16/1936 12:00,638.29
5/17/1936 12:00,637.98
5/18/1936 12:00,637.68
5/19/1936 12:00,637.42
5/20/1936 12:00,637.14
5/21/1936 12:00,636.87
5/22/1936 12:00,636.60
5/23/1936 12:00,636.52
5/24/1936 12:00,636.40
5/25/1936 12:00,636.12
5/26/1936 12:00,635.78
5/27/1936 12:00,635.20
5/28/1936 12:00,634.80
5/29/1936 12:00,634.34
5/30/1936 12:00,634.14
5/31/1936 12:00,633.90
6/1/1936 12:00,633.68
6/2/1936 12:00,633.41
6/3/1936 12:00,632.85
6/4/1936 12:00,632.68
6/5/1936 12:00,632.30
6/6/1936 12:00,632.08
6/7/1936 12:00,632.25
6/8/1936 12:00,632.16
6/9/1936 12:00,631.95
6/10/1936 12:00,631.91
6/11/1936 12:00,632.05
6/12/1936 12:00,631.68
6/13/1936 12:00,631.64
6/14/1936 12:00,631.21
6/15/1936 12:00,631.31
6/16/1936 12:00,630.77
6/17/1936 12:00,630.60
6/18/1936 12:00,630.83
6/19/1936 12:00,630.58
6/20/1936 12:00,630.05
6/21/1936 12:00,630.22
6/22/1936 12:00,629.90
6/23/1936 12:00,629.95
6/24/1936 12:00,629.96
6/25/1936 12:00,629.91
6/26/1936 12:00,629.78
6/27/1936 12:00,629.69
6/28/1936 12:00,629.59
6/29/1936 12:00,629.52
6/30/1936 12:00,629.50
7/1/1936 12:00,629.48
7/2/1936 12:00,629.30
7/3/1936 12:00,629.22
7/4/1936 12:00,629.00
7/5/1936 12:00,628.78
7/6/1936 12:00,628.73
7/7/1936 12:00,628.53
7/8/1936 12:00,628.40
7/9/1936 12:00,628.30
7/10/1936 12:00,628.24
7/11/1936 12:00,628.21
7/12/1936 12:00,628.03
7/13/1936 12:00,627.90
7/14/1936 12:00,627.85
7/15/1936 12:00,627.84
7/16/1936 12:00,627.89
7/17/1936 12:00,627.76
7/18/1936 12:00,627.50
7/19/1936 12:00,627.40
7/20/1936 12:00,627.48
7/21/1936 12:00,627.20
7/22/1936 12:00,627.03
7/23/1936 12:00,626.70
7/24/1936 12:00,626.45
7/25/1936 12:00,626.24
7/26/1936 12:00,626.16
7/27/1936 12:00,626.31
7/28/1936 12:00,626.39
7/29/1936 12:00,626.88
7/30/1936 12:00,625.99
7/31/1936 12:00,625.48
8/1/1936 12:00,626.14
8/2/1936 12:00,626.15
8/3/1936 12:00,625.91
8/4/1936 12:00,625.94
8/5/1936 12:00,626.16
8/6/1936 12:00,626.23
8/7/1936 12:00,626.25
8/8/1936 12:00,626.30
8/9/1936 12:00,626.33
8/10/1936 12:00,626.23
8/11/1936 12:00,626.18
8/12/1936 12:00,626.11
8/13/1936 12:00,626.02
8/14/1936 12:00,626.01
8/15/1936 12:00,625.86
8/16/1936 12:00,625.85
8/17/1936 12:00,625.86
8/18/1936 12:00,625.85
8/19/1936 12:00,625.81
8/20/1936 12:00,625.82
8/21/1936 12:00,626.12
8/22/1936 12:00,626.63
8/23/1936 12:00,626.85
8/24/1936 12:00,626.88
8/25/1936 12:00,626.82
8/26/1936 12:00,626.89
8/27/1936 12:00,626.94
8/28/1936 12:00,628.43
8/29/1936 12:00,631.25
8/30/1936 12:00,630.40
8/31/1936 12:00,629.57
9/1/1936 12:00,628.50
9/2/1936 12:00,627.75
9/3/1936 12:00,627.57
9/4/1936 12:00,628.53
9/5/1936 12:00,628.19
9/6/1936 12:00,627.91
9/7/1936 12:00,628.65
9/8/1936 12:00,630.65
9/9/1936 12:00,629.46
9/10/1936 12:00,627.99
9/11/1936 12:00,627.56
9/12/1936 12:00,628.12
9/13/1936 12:00,628.00
9/14/1936 12:00,627.97
9/15/1936 12:00,627.86
9/16/1936 12:00,630.14
9/17/1936 12:00,628.95
9/18/1936 12:00,628.06
9/19/1936 12:00,627.86
9/20/1936 12:00,627.86
9/21/1936 12:00,629.45
9/22/1936 12:00,628.96
9/23/1936 12:00,628.54
9/24/1936 12:00,628.03
9/25/1936 12:00,628.05
9/26/1936 12:00,627.57
9/27/1936 12:00,627.33
9/28/1936 12:00,628.53
9/29/1936 12:00,627.52
9/30/1936 12:00,627.30
10/1/1936 12:00,627.24
10/2/1936 12:00,627.16
10/3/1936 12:00,626.87
10/4/1936 12:00,626.87
10/5/1936 12:00,626.89
10/6/1936 12:00,626.91
10/7/1936 12:00,627.34
10/8/1936 12:00,627.20
10/9/1936 12:00,627.34
10/10/1936 12:00,627.50
10/11/1936 12:00,627.42
10/12/1936 12:00,627.47
10/13/1936 12:00,627.42
10/14/1936 12:00,626.82
10/15/1936 12:00,627.41
10/16/1936 12:00,627.33
10/17/1936 12:00,627.50
10/18/1936 12:00,627.35
10/19/1936 12:00,627.35
10/20/1936 12:00,626.99
10/21/1936 12:00,627.28
10/22/1936 12:00,627.00
10/23/1936 12:00,626.96
10/24/1936 12:00,627.21
10/25/1936 12:00,627.39
10/26/1936 12:00,627.45
10/27/1936 12:00,627.43
10/28/1936 12:00,627.55
10/29/1936 12:00,627.51
10/30/1936 12:00,627.33
10/31/1936 12:00,627.35
11/1/1936 12:00,628.11
11/2/1936 12:00,629.15
11/3/1936 12:00,629.00
11/4/1936 12:00,628.30
11/5/1936 12:00,627.77
11/6/1936 12:00,628.55
11/7/1936 12:00,627.97
11/8/1936 12:00,628.53
11/9/1936 12:00,628.32
11/10/1936 12:00,628.20
11/11/1936 12:00,627.99
11/12/1936 12:00,627.93
11/13/1936 12:00,627.98
11/14/1936 12:00,628.06
11/15/1936 12:00,627.82
11/16/1936 12:00,627.81
11/17/1936 12:00,628.02
11/18/1936 12:00,627.86
11/19/1936 12:00,627.98
11/20/1936 12:00,627.97
11/21/1936 12:00,628.12
11/22/1936 12:00,627.74
11/23/1936 12:00,627.64
11/24/1936 12:00,628.37
11/25/1936 12:00,628.53
11/26/1936 12:00,628.25
11/27/1936 12:00,628.37
11/28/1936 12:00,628.00
11/29/1936 12:00,628.02
11/30/1936 12:00,628.30
12/1/1936 12:00,627.89
12/2/1936 12:00,627.12
12/3/1936 12:00,627.04
12/4/1936 12:00,627.12
12/5/1936 12:00,626.98
12/6/1936 12:00,627.70
12/7/1936 12:00,628.42
12/8/1936 12:00,628.47
12/9/1936 12:00,628.40
12/10/1936 12:00,628.25
12/11/1936 12:00,628.15
12/12/1936 12:00,627.94
12/13/1936 12:00,627.96
12/14/1936 12:00,627.80
12/15/1936 12:00,628.06
12/16/1936 12:00,628.54
12/17/1936 12:00,628.66
12/18/1936 12:00,629.11
12/19/1936 12:00,629.25
12/20/1936 12:00,629.60
12/21/1936 12:00,629.64
12/22/1936 12:00,629.57
12/23/1936 12:00,629.48
12/24/1936 12:00,629.15
12/25/1936 12:00,629.15
12/26/1936 12:00,629.75
12/27/1936 12:00,630.85
12/28/1936 12:00,629.90
12/29/1936 12:00,629.07
12/30/1936 12:00,628.72
12/31/1936 12:00,630.27
1/1/1937 12:00,628.85
1/2/1937 12:00,629.32
1/3/1937 12:00,630.35
1/4/1937 12:00,630.52
1/5/1937 12:00,630.29
1/6/1937 12:00,631.34
1/7/1937 12:00,631.40
1/8/1937 12:00,631.75
1/9/1937 12:00,632.70
1/10/1937 12:00,632.55
1/11/1937 12:00,632.40
1/12/1937 12:00,631.90
1/13/1937 12:00,631.92
1/14/1937 12:00,631.80
1/15/1937 12:00,631.49
1/16/1937 12:00,631.76
1/17/1937 12:00,631.62
1/18/1937 12:00,631.40
1/19/1937 12:00,631.54
1/20/1937 12:00,631.10
1/21/1937 12:00,630.90
1/22/1937 12:00,630.86
1/23/1937 12:00,630.77
1/24/1937 12:00,630.65
1/25/1937 12:00,630.60
1/26/1937 12:00,630.59
1/27/1937 12:00,630.58
1/28/1937 12:00,630.48
1/29/1937 12:00,630.39
1/30/1937 12:00,630.39
1/31/1937 12:00,630.35
2/1/1937 12:00,630.42
2/2/1937 12:00,630.45
2/3/1937 12:00,630.42